Wiley, CO

7:40 PM MDT on July 25, 2016 (GMT -0600)
Lamar Municipal

Weather History for KLAA - April, 2013

Change the Weather History Date:

Tuesday, April 16, 2013

  Actual Average Record
Temperature  
Mean Temperature 42 °F 52 °F  
Max Temperature 49 °F 69 °F 95 °F (1936)
Min Temperature 35 °F 35 °F 22 °F (1961)
Degree Days  
Heating Degree Days 23 13  
Month to date heating degree days 288 242  
Since 1 July heating degree days 5089 5251  
Cooling Degree Days 0 0  
Month to date cooling degree days 0 0  
Year to date cooling degree days 0 0  
Moisture  
Dew Point 26 °F    
Average Humidity 57    
Maximum Humidity 70    
Minimum Humidity 44    
Precipitation  
Precipitation 0.00 in 0.04 in 2.19 in (1969)
Month to date precipitation T 0.53  
Year to date precipitation 0.26 2.04  
Sea Level Pressure  
Sea Level Pressure 29.93 in    
Wind  
Wind Speed 16 mph (East)    
Max Wind Speed 24 mph    
Max Gust Speed 31 mph    
Visibility 10 miles    
Events      
T = Trace of Precipitation, MM = Missing Value Source: NWS Daily Summary

Daily Weather History Graph

Daily Weather History Graph

Search for Another Location

Airport or City:

Trip Planner

Search our weather history database for the weather conditions in past years. The results will help you decide how hot, cold, wet, or windy it might be!

Date:

Astronomy

Apr. 16, 2013 Rise Set
Actual Time 6:13 AM MDT 7:28 PM MDT
Civil Twilight 5:46 AM MDT 7:55 PM MDT
Nautical Twilight 5:13 AM MDT 8:28 PM MDT
Astronomical Twilight 4:39 AM MDT 9:02 PM MDT
Moon 10:36 AM MDT (4/16) 12:24 AM MDT (4/16)
Length of Visible Light 14h 09m
Length of Day
13h 14m
Waxing Crescent, 34% of the Moon is Illuminated
Apr 16
Waxing Crescent
Apr 18
First Quarter
Apr 25
Full
May 2
Last Quarter
May 9
New

Hourly Weather History & Observations

Time (MDT) Temp. Windchill Dew Point Humidity Pressure Visibility Wind Dir Wind Speed Gust Speed Precip Events Conditions
12:53 AM 39.0 °F 31.0 °F 19.0 °F 45% 29.95 in 10.0 mi East 13.8 mph - N/A   Overcast
1:53 AM 37.9 °F 28.9 °F 21.0 °F 51% 29.95 in 10.0 mi NE 16.1 mph - N/A   Overcast
2:53 AM 37.0 °F 29.3 °F 23.0 °F 57% 29.95 in 10.0 mi ENE 11.5 mph - N/A   Overcast
3:53 AM 37.0 °F 30.4 °F 24.1 °F 59% 29.95 in 10.0 mi ENE 9.2 mph - N/A   Overcast
4:53 AM 37.0 °F 28.9 °F 24.1 °F 59% 29.96 in 10.0 mi ENE 12.7 mph - N/A   Overcast
6:53 AM 35.1 °F 25.9 °F 21.9 °F 59% 30.01 in 10.0 mi East 13.8 mph - N/A   Overcast
7:53 AM 36.0 °F 26.3 °F 23.0 °F 59% 30.04 in 10.0 mi East 16.1 mph - N/A   Overcast
8:53 AM 37.0 °F 28.1 °F 24.1 °F 59% 30.04 in 10.0 mi East 15.0 mph - N/A   Overcast
9:53 AM 39.0 °F 31.8 °F 25.0 °F 57% 30.04 in 10.0 mi ESE 11.5 mph 23.0 mph N/A   Overcast
10:53 AM 41.0 °F 32.5 °F 25.0 °F 53% 30.01 in 10.0 mi ESE 17.3 mph 26.5 mph N/A   Overcast
11:09 AM 41.0 °F 32.2 °F 24.8 °F 53% 30.01 in 10.0 mi East 18.4 mph 26.5 mph N/A   Overcast
11:53 AM 42.1 °F 33.3 °F 26.1 °F 53% 29.98 in 10.0 mi East 19.6 mph 26.5 mph N/A   Overcast
12:53 PM 43.0 °F 34.0 °F 26.1 °F 51% 29.95 in 10.0 mi ESE 21.9 mph 28.8 mph N/A   Overcast
1:53 PM 44.1 °F 36.2 °F 27.0 °F 51% 29.92 in 10.0 mi ESE 18.4 mph 28.8 mph N/A   Overcast
2:29 PM 44.6 °F 36.6 °F 26.6 °F 49% 29.91 in 10.0 mi ESE 19.6 mph 28.8 mph N/A   Overcast
2:53 PM 45.0 °F 36.9 °F 27.0 °F 49% 29.90 in 10.0 mi ESE 20.7 mph 26.5 mph N/A   Overcast
3:53 PM 46.0 °F 38.5 °F 28.0 °F 50% 29.86 in 10.0 mi ESE 19.6 mph 25.3 mph N/A   Overcast
4:53 PM 46.0 °F 38.0 °F 28.9 °F 51% 29.84 in 10.0 mi ESE 21.9 mph - N/A   Mostly Cloudy
5:53 PM 46.0 °F 38.3 °F 30.0 °F 54% 29.83 in 9.0 mi ESE 20.7 mph 27.6 mph N/A   Mostly Cloudy
6:53 PM 46.0 °F 38.8 °F 30.9 °F 56% 29.85 in 9.0 mi East 18.4 mph 24.2 mph N/A   Scattered Clouds
7:53 PM 44.1 °F 36.5 °F 30.9 °F 60% 29.85 in 10.0 mi ESE 17.3 mph - N/A   Clear
8:53 PM 41.0 °F 33.5 °F 28.9 °F 62% 29.88 in 10.0 mi East 13.8 mph - N/A   Clear
9:53 PM 41.0 °F 33.9 °F 30.0 °F 65% 29.88 in 10.0 mi East 12.7 mph - N/A   Mostly Cloudy
10:53 PM 41.0 °F 33.1 °F 30.9 °F 67% 29.90 in 10.0 mi East 15.0 mph - N/A   Overcast
11:53 PM 39.0 °F 29.3 °F 30.0 °F 70% 29.91 in 10.0 mi East 19.6 mph 23.0 mph N/A   Overcast